{"data":{"norad_id":54792,"intl_designator":"2022-175AL","name":"STARLINK-5431","alt_names":[],"object_type":"PAYLOAD","status":"ACTIVE","operator":null,"country":"US","launch_date":"2022-12-17","launch_site_code":"AFETR","launch_vehicle":null,"mission":null,"orbit_class":"UNKNOWN","rcs_meters":null,"size_class":null,"mass_kg":null,"dimensions":null,"purposes":["comms"],"wikipedia_slug":null,"has_3d_model":false,"image_url":null,"decayed_at":null,"tle_current":{"epoch":"2026-09-20T11:46:47.673120Z","epoch_age_seconds":89856,"freshness":"FRESH","line1":"1 54792U 22175AL  26263.49082955  .00016492  00000+0  53713-3 0  9998","line2":"2 54792  53.1594 238.0119 0002398  79.8107 280.3164 15.31991654209485","mean_motion":15.31991654,"eccentricity":0.0002398,"inclination_deg":53.1594,"raan_deg":238.0119,"arg_perigee_deg":79.8107,"mean_anomaly_deg":280.3164,"bstar":0.00053713,"rev_number":20948,"period_min":93.995290133611,"perigee_km":468.22857550595,"apogee_km":471.51288001218,"semimajor_km":6848.0077277591,"source":"CELESTRAK","updated_at":"2026-09-21T09:00:33.127122Z"}}}